Regional Weather Roundup
Issued by NWS

Home | Current Version | Previous Version | Text Only | Print | Product List | Glossary Off
Versions: 1 2 3 4 5 6 7 8 9 10 11 12 13 14 15 16 17 18 19 20 21 22 23 24 25 26 27 28 29 30 31 32 33 34 35 36 37 38 39 40 41 42 43 44 45 46 47 48 49 50

000
ASUS43 KLOT 062006
RWRIL

ILLINOIS REGIONAL WEATHER ROUNDUP
NATIONAL WEATHER SERVICE CHICAGO/ROMEOVILLE IL
200 PM CST FRI MAR 06 2015

NOTE: "FAIR" INDICATES FEW OR NO CLOUDS BELOW 12,000 FEET WITH NO
SIGNIFICANT WEATHER AND/OR OBSTRUCTIONS TO VISIBILITY.

* THESE STATIONS ARE NOT UNDER NWS QUALITY CONTROL. THEY ALSO MAY NOT
  REPORT WEATHER SUCH AS PRECIPITATION OR FOG.

ILZ001-002-007-009-015-016-024-062100-
NORTHWEST ILLINOIS

CITY           SKY/WX    TMP DP  RH WIND       PRES   REMARKS
MOLINE         SUNNY     33  20  58 SW15      30.20F WCI  23
STERLING*      SUNNY     32  19  59 W7        30.21F WCI  26
SAVANNA*       SUNNY     31  17  57 SW13G21   30.19F WCI  21
$$

ILZ003-004-008-010-011-017-018-062100-
NORTH CENTRAL ILLINOIS

CITY           SKY/WX    TMP DP  RH WIND       PRES   REMARKS
ROCKFORD       MOSUNNY   25  16  68 S13       30.21F WCI  14
FREEPORT*      SUNNY     25  16  68 S14G23    30.20F WCI  13
ROCHELLE*      SUNNY     25  18  75 S17       30.21F WCI  11
DE KALB*       SUNNY     22  15  72 S22       30.21F WCI   7
PERU*          SUNNY     30  18  60 S16       30.24F WCI  18
$$

ILZ005-006-012>014-019>023-062100-
NORTHEAST ILLINOIS

CITY           SKY/WX    TMP DP  RH WIND       PRES   REMARKS
CHICAGO-OHARE  MOSUNNY   25  11  55 S17       30.21F WCI  12
CHICAGO-MIDWAY MOSUNNY   26  11  52 S16G26    30.24F WCI  14
AURORA         SUNNY     25  13  60 S20G28    30.23F WCI  11
LANSING*       SUNNY     23  12  62 S16G24    30.27F WCI  10
JOLIET*        SUNNY     25  13  62 S14G21    30.26F WCI  13
WAUKEGAN       CLOUDY    28  11  48 S22       30.18F WCI  14
DUPAGE AIRPORT SUNNY     23  12  62 S22G30    30.22F WCI   8
KANKAKEE*      SUNNY     23  14  69 S18G25    30.28F WCI   9
WHEELING       SUNNY     27   8  44 SW21G30   30.23F WCI  13
MORRIS*        SUNNY     23  16  75 S21G26    30.26F WCI   8
ROMEOVILLE*    SUNNY     24  14  65 S20       30.25S WCI  10
NORTHERLY ISL    N/A     24  10  55 S14         N/A  WCI  12
$$

LMZ740>746-062100-
SOUTHERN LAKE MICHIGAN

STATION/POSITION SKY/WX   TEMP    WIND        PRES    VSBY  WAVE
                          AIR SEA DIR/SP/G                  HT/PER
                          (F)     (DEG/KT/KT) (MB)    (MI)  (FT/S)
WAUKEGAN HARBOR            27                   N/A
HARRISON CRIB              22     190/ 28/ 33   N/A
BURNHAM HARBOR             24     190/ 17/ 22   N/A
CALUMET HARBOR             23     190/ 16/ 24 1023.2F
MICHIGAN CITY              20     160/ 16/ 21   N/A
$$

ILZ025>027-034>036-040-047-049-050-058-095>099-062100-
WEST-CENTRAL ILLINOIS

CITY           SKY/WX    TMP DP  RH WIND       PRES   REMARKS
QUINCY         SUNNY     40  24  53 SW16      30.23F
GALESBURG*     SUNNY     33  23  66 SW15      30.22F WCI  23
MACOMB*        SUNNY     36  24  61 SW16      30.25F WCI  26
JACKSONVILLE*  SUNNY     37  22  54 S10       30.26F WCI  30
PITTSFIELD*    SUNNY     43  25  48 SW15G21   30.26F
$$

ILZ028>032-037-038-041>044-048-051>054-059>061-062100-
CENTRAL ILLINOIS

CITY           SKY/WX    TMP DP  RH WIND       PRES   REMARKS
PONTIAC        SUNNY     25  17  72 S23       30.27F WCI   9
BLOOMINGTON    SUNNY     27  18  69 S20       30.27  WCI  14
DECATUR        SUNNY     28  16  60 S17       30.31F WCI  16
PEORIA         SUNNY     31  18  58 S15       30.26F WCI  20
LACON*         SUNNY     30  16  56 S15G21    30.24F WCI  19
LINCOLN*       SUNNY     32  18  56 S13G21    30.31F WCI  22
SPRINGFIELD    SUNNY     30  19  63 S18G24    30.29F WCI  18
TAYLORVILLE    SUNNY     28  18  64 S22       30.31S WCI  15
$$

ILZ033-039-045-046-055>057-062-063-062100-
EAST-CENTRAL ILLINOIS

CITY           SKY/WX    TMP DP  RH WIND       PRES   REMARKS
CHAMPAIGN      SUNNY     24  14  65 S25       30.29F WCI   8
DANVILLE*      CLOUDY    24  11  57 S18       30.29F WCI  10
RANTOUL*       SUNNY     24  15  67 S18G24    30.30F WCI  10
MATTOON        SUNNY     24  12  60 S18G25    30.33F WCI  10
PARIS*         CLOUDY    26  13  58 S17       30.36F WCI  14
$$

ILZ079-100>102-062100-
SOUTHWEST ILLINOIS

CITY           SKY/WX    TMP DP  RH WIND       PRES   REMARKS
ALTON          SUNNY     34  16  47 MISG        N/A
BELLEVILLE     SUNNY     35  21  57 S14G20    30.33  WCI  26
CAHOKIA*       SUNNY     42  23  46 S12       30.32F
SPARTA*        SUNNY     30  15  54 S16G22    30.38F WCI  18
$$

ILZ064>066-069>071-074>076-080>082-084>086-088>090-092>094-062100-
SOUTH-CENTRAL ILLINOIS

CITY           SKY/WX    TMP DP  RH WIND       PRES   REMARKS
CARBONDALE     SUNNY     31  12  45 SW16      30.44F WCI  20
CAIRO*         SUNNY     29  13  51 S10       30.51F WCI  20
EFFINGHAM*     SUNNY     28  11  48 SE13      30.38F WCI  18
MARION         SUNNY     30  14  51 S18       30.45  WCI  18
MT. VERNON     SUNNY     30  18  59 S10G20    30.42F WCI  21
CENTRALIA*     SUNNY     31  15  50 S15       30.37F WCI  21
SALEM*         SUNNY     32  14  47 S16G22    30.37F WCI  21
METROPOLIS*    SUNNY     30  12  46 S7        30.49F WCI  23
$$

ILZ067-068-072-073-078-083-087-091-062100-
SOUTHEAST ILLINOIS

CITY           SKY/WX    TMP DP  RH WIND       PRES   REMARKS
LAWRENCEVILLE  SUNNY     26   9  48 S17       30.45F WCI  13
FLORA*         SUNNY     27  13  56 S17       30.41F WCI  14
FAIRFIELD*     SUNNY     27  13  55 S13       30.43F WCI  16
HARRISBURG*    SUNNY     31  13  46 S9        30.46F WCI  23
ROBINSON*      SUNNY     27  12  54 S12       30.44F WCI  16
CARMI*         SUNNY     29  17  60 SE10      30.46F WCI  20
$$

ABBREVIATIONS USED IN REMARKS
   TC - TEMPERATURE IN CELSIUS
  WCI - WIND CHILL INDEX
   HX - HEAT INDEX
  VSB - VISIBILITY
$$



USA.gov is the U.S. government's official web portal to all federal, state and local government web resources and services.